Regional Weather Roundup
Issued by NWS Little Rock, AR

Home | Current Version | Previous Version | Graphics & Text | Print | Product List | Glossary On
Versions: 1 2 3 4 5 6 7 8 9 10 11 12 13 14 15 16 17 18 19 20 21 22 23 24 25 26 27 28 29 30 31 32
000
ASUS44 KLZK 242205
RWRLZK

WEATHER ROUNDUP FOR ARKANSAS
NATIONAL WEATHER SERVICE LITTLE ROCK AR
500 PM CDT WED MAY 24 2017

NOTE: "FAIR" INDICATES FEW OR NO CLOUDS BELOW 12,000 FEET WITH NO
SIGNIFICANT WEATHER AND/OR OBSTRUCTIONS TO VISIBILITY.

ARZ001-003-010-029-242300-
NORTHWEST ARKANSAS

CITY           SKY/WX    TMP DP  RH WIND       PRES   REMARKS
FAYETTEVILLE   MOSUNNY   64  47  53 W14       29.70F
FORT SMITH     CLOUDY    71  45  39 NW16G24   29.70F
HARRISON       CLOUDY    58  47  66 NW3       29.67F
BENTONVILLE    MOSUNNY   64  46  52 NW10G16   29.70F
ROGERS         MOSUNNY   63  47  55 NW14G22   29.70F
SILOAM SPGS    PTSUNNY   64  45  48 NW12G24   29.71F
HIGHFILL       PTSUNNY   65  47  52 W13G21    29.70F
SPRINGDALE     MOSUNNY   64  46  52 NW14G23   29.71F
$$

ARZ004-005-016-242300-
NORTH CENTRAL ARKANSAS

CITY           SKY/WX    TMP DP  RH WIND       PRES   REMARKS
BATESVILLE     MOSUNNY   66  45  45 W12G20    29.63S
FLIPPIN        CLOUDY    63  46  55 W12       29.64S
MTN HOME       PTSUNNY   60  50  69 VRB7      29.64F
$$

ARZ040-041-242300-
WEST CENTRAL ARKANSAS

CITY           SKY/WX    TMP DP  RH WIND       PRES   REMARKS
MENA           PTSUNNY   68  46  45 W16       29.73S
MOUNT IDA      CLOUDY    66  44  45 NW8       29.68F
$$

ARZ009-017-025-026-028-242300-
NORTHEAST ARKANSAS

CITY           SKY/WX    TMP DP  RH WIND       PRES   REMARKS
JONESBORO      TSTM      59  50  72 NW9G21    29.61S
WALNUT RIDGE   PTSUNNY   64  48  55 CALM      29.60S
BLYTHEVILLE    CLOUDY    60  53  77 W9G18     29.59S
NW BLYTHEVILLE PTSUNNY   59  45  58 W10G17    29.59S
$$

ARZ022-023-033-042-044-242300-
CENTRAL ARKANSAS

CITY           SKY/WX    TMP DP  RH WIND       PRES   REMARKS
LITTLE ROCK    PTSUNNY   70  46  42 NW17G26   29.64S
N LITTLE ROCK    N/A     67  49  51 NW9G21    29.64S
JACKSONVILLE   MOSUNNY   67  51  57 W7        29.63S
CONWAY           N/A     72  46  40 W14G24    29.63S
SEARCY         CLOUDY    64  53  67 W6        29.65R
HOT SPRINGS    CLOUDY    67  47  48 W12G21    29.68S
RUSSELLVILLE   PTSUNNY   69  45  41 W17G24    29.66S
CLINTON        PTSUNNY   66  46  48 NW10G17   29.65S
$$

ARZ036-242300-
EAST ARKANSAS

CITY           SKY/WX    TMP DP  RH WIND       PRES   REMARKS
WEST MEMPHIS   RAIN      58  53  84 W14G23    29.61R
$$

ARZ050-053-066-070-073-242300-
SOUTHWEST ARKANSAS

CITY           SKY/WX    TMP DP  RH WIND       PRES   REMARKS
ARKADELPHIA    MOCLDY    69  49  48 NW12G18   29.69S
CAMDEN         PTSUNNY   72  45  37 W9G16     29.69S
TEXARKANA      PTSUNNY   71  47  42 NW14G24   29.72F
EL DORADO      CLOUDY    68  48  48 W10G18    29.70F
DE QUEEN       PTSUNNY   69  48  47 NW12      29.71F
$$

ARZ056-057-069-242300-
SOUTHEAST ARKANSAS

CITY           SKY/WX    TMP DP  RH WIND       PRES   REMARKS
PINE BLUFF     PTSUNNY   70  49  47 W12       29.65S
STUTTGART      PTSUNNY   72  46  40 W20       29.63S
MONTICELLO     CLOUDY    69  49  48 NW7       29.65F

$$






USA.gov is the U.S. government's official web portal to all federal, state and local government web resources and services.